Regional Weather Roundup
Issued by NWS State College, PA

Home | Current Version | Previous Version | Text Only | Print | Product List | Glossary On
Versions: 1 2 3 4 5 6 7 8 9 10 11 12 13 14 15 16 17 18 19 20 21 22 23 24 25 26 27 28 29 30 31 32 33 34 35 36 37 38 39 40 41 42 43 44 45 46 47 48 49 50
000
ASUS41 KCTP 021010
RWRCTP

REGIONAL WEATHER ROUNDUP
NATIONAL WEATHER SERVICE STATE COLLEGE PA
600 AM EDT WED SEP 02 2015

Note: "fair" indicates few or no clouds below 12,000 feet with no
significant weather and/or obstructions to visibility.

* = STATION THAT DOES NOT REPORT PRECIPITATION /E.G. RAIN...SNOW...ETC/
    THUNDER OR FOG.

PAZ002>004-007>009-013>016-020>023-029>032-021100-
WESTERN PENNSYLVANIA

CITY           SKY/WX    TMP DP  RH WIND       PRES   REMARKS
ERIE           CLEAR     70  63  78 S7        30.06S
MEADVILLE      CLEAR     68  63  84 CALM      30.11S
FRANKLIN*      PTCLDY    63  61  94 CALM      30.13S
NEW CASTLE     FOG       66  66 100 CALM      30.11S VSB 1
BEAVER COUNTY  NOT AVBL
BUTLER*        MOCLDY    64  63  94 CALM      30.11F
PITTSBURGH INT CLOUDY    70  66  87 W3        30.10R
PITTSBURGH     CLOUDY    71  63  75 CALM      30.09S
INDIANA*       NOT AVBL
LATROBE        NOT AVBL
WASHINGTON CO* MOCLDY    66  64  94 CALM      30.11S
$$

PAZ004>006-010>012-017>019-024>028-033>037-041-042-045-046-049>053-021100-
CENTRAL PENNSYLVANIA

CITY           SKY/WX    TMP DP  RH WIND       PRES   REMARKS
BRADFORD       MOCLDY    53  52  96 CALM      30.14S FOG
DUBOIS         CLOUDY    63  60  90 CALM      30.12S FOG
CLEARFIELD     FOG       62  61  96 CALM      30.12S VSB 1/4
JOHNSTOWN      CLEAR     67  62  84 SW6       30.14F
ALTOONA        CLEAR     63  60  90 CALM      30.11S FOG
STATE COLLEGE  CLOUDY    64  63  94 CALM      30.10R FOG
WILLIAMSPORT   CLOUDY    67  65  93 W6        30.05R FOG
SELINSGROVE    PTCLDY    60  58  92 CALM      30.06R FOG
FT INDIANTOWN  CLEAR     63  63 100 CALM      30.05R FOG
CAPITAL CITY   FAIR      66  63  90 CALM      30.04S
HARRISBURG     MOCLDY    69  66  90 CALM      30.04R
YORK           PTCLDY    61  59  93 CALM      30.05S FOG
$$

PAZ038>040-043-044-047-048-054-055-060>062-067>071-021100-
EASTERN PENNSYLVANIA

CITY           SKY/WX    TMP DP  RH WIND       PRES   REMARKS
SCRANTON       CLEAR     64  60  87 SE3       30.06S
MOUNT POCONO   CLEAR     58  56  93 NW3       30.10S FOG
ALLENTOWN      CLEAR     64  61  90 CALM      30.04S FOG
QUAKERTOWN*    MOSUNNY   63  61  94 CALM      30.05S
READING        CLEAR     67  64  90 CALM      30.03S
LANCASTER      PTCLDY    63  62  97 NE3       30.04S FOG
COATESVILLE    SUNNY     66  66 100 W5        30.06R
POTTSTOWN      CLEAR     63  63 100 CALM      30.05S FOG
BLUE BELL      MOCLDY    63  63 100 CALM      30.03S VSB 1/4
DOYLESTOWN     CLEAR     64  64 100 CALM      30.03S
WILLOW GROVE   NOT AVBL
NORTH PHILA    FOG       71  67  87 NE3       30.04S VSB 1/4
PHILADELPHIA   PTCLDY    74  69  85 NW3       30.03S FOG
$$


USA.gov is the U.S. government's official web portal to all federal, state and local government web resources and services.